AEROCUBE 8D

Last updated on Sat Aug 30 2025 00:03:48 GMT+0000 (Coordinated Universal Time)

1 41852U 16067E 25241.07208670 .00009390 00000+0 45728-3 0 9993 2 41852 98.1051 84.5286 0005155 70.5291 289.6498 15.18598999481642
UTC large
Height (km)
Speed (km/s)
/
Latitude / Longitude
Inclination (degrees)
Orbital Period (minutes)
Azimuth
Elevation
Range (km)
Doppler Factor

Next 0 passes for location: London (51.5072 / 0.1276)

Sorry there are no passes over London.